Location: Detroit
(42.3310°N, 83.0460°W)
Time: 19:42:58
(UTC-04:00)

ISS - Visible Passes

Search period start: 18 May 2024 00:00
Search period end: 28 May 2024 00:00
Orbit: 410 x 414 km, 51.6° (Epoch: 18 May)

Date Brightness Start Highest point End Pass type
(mag) Time Alt. Az. Time Alt. Az. Time Alt. Az.
18 May -1.4 00:29:21 10° NW 00:31:17 24° NNW 00:31:17 24° NNW visible
18 May -0.9 22:02:37 10° NW 22:04:51 17° N 22:07:05 10° NE visible
18 May -1.7 23:39:38 10° NW 23:42:22 23° NNE 23:43:07 21° NE visible
19 May -1.3 22:49:50 10° NW 22:52:18 19° NNE 22:54:46 10° ENE visible
20 May -1.5 00:26:11 10° NW 00:27:42 24° NW 00:27:42 24° NW visible
20 May -1.1 21:59:53 10° NW 22:02:09 17° N 22:04:26 10° NE visible
20 May -2.5 23:36:21 10° NW 23:39:28 37° NNE 23:39:28 37° NNE visible
21 May -2.0 22:46:30 10° NW 22:49:24 27° NNE 22:51:12 17° ENE visible
22 May -1.3 00:22:56 10° WNW 00:23:59 18° WNW 00:23:59 18° WNW visible
22 May -1.6 21:56:34 10° NW 21:59:12 21° NNE 22:01:50 10° ENE visible
22 May -3.3 23:32:55 10° NW 23:35:42 59° NW 23:35:42 59° NW visible
23 May -3.1 22:42:54 10° NW 22:46:09 48° NNE 22:47:24 30° E visible
24 May -0.8 00:19:57 10° W 00:20:11 11° W 00:20:11 11° W visible
24 May -2.4 21:52:54 10° NW 21:55:57 32° NNE 21:58:59 10° E visible
24 May -2.5 23:29:30 10° WNW 23:31:52 33° WSW 23:31:52 33° WSW visible
25 May -3.8 22:39:13 10° WNW 22:42:32 71° SW 22:43:32 41° SE visible
26 May -3.6 21:49:02 10° NW 21:52:21 66° NNE 21:55:13 13° ESE visible
26 May -1.4 23:26:34 10° W 23:28:00 15° WSW 23:28:00 15° WSW visible
27 May -2.3 22:35:41 10° WNW 22:38:32 27° SW 22:39:40 22° S visible
